Location: Arborea
(39.7744°N, 8.5819°E)
Time: 07:31:03
(UTC+00:00)

Cosmos 1602 Rocket - Pass Details

Date: 24 October 2021
Orbit: 603 x 634 km, 82.5° (Epoch: 02 December)

Event Time Altitude Azimuth Distance (km) Brightness Sun altitude
Rises 17:46:34 0° 357° (N) 2,878 7.0 -14.7°
Reaches altitude 10° 17:48:51 10° 2° (N) 1,966 6.1 -15.1°
Maximum altitude 17:53:07 54° 80° (E) 737 3.5 -15.9°
Drops below altitude 10° 17:57:19 10° 158° (SSE) 1,942 5.9 -16.7°
Sets 17:59:33 0° 163° (SSE) 2,839 6.8 -17.2°
